Change the Weather History Date:

Monday, October 15, 2012

  Actual Average Record
Temperature  
Mean Temperature 56 °F -  
Max Temperature 67 °F 61 °F 74 °F (1952)
Min Temperature 46 °F 37 °F 25 °F (1966)
Degree Days  
Heating Degree Days 8    
Growing Degree Days 6 (Base 50)    
Moisture  
Dew Point 27 °F    
Average Humidity 33    
Maximum Humidity 54    
Minimum Humidity 16    
Precipitation  
Precipitation 0.00 in - - ()
Sea Level Pressure  
Sea Level Pressure 30.26 in    
Wind  
Wind Speed 2 mph (NE)    
Max Wind Speed 8 mph    
Max Gust Speed -    
Averages and records for this station are not official NWS values.
T = Trace of Precipitation, MM = Missing Value Source: NWS Daily Summary

Daily Weather History Graph

Daily Weather History Graph

Search for Another Location

Airport or City:

Trip Planner

Search our weather history database for the weather conditions in past years. The results will help you decide how hot, cold, wet, or windy it might be!

Date:

Astronomy

Oct. 15, 2012 Rise Set
Actual Time 7:12 AM MDT 6:28 PM MDT
Civil Twilight 6:46 AM MDT 6:54 PM MDT
Nautical Twilight 6:16 AM MDT 7:24 PM MDT
Astronomical Twilight 5:47 AM MDT 7:53 PM MDT
Moon 7:23 AM MDT (10/15) 6:33 PM MDT (10/15)
Length of Visible Light 12h 07m
Length of Day
11h 16m
New Moon, 0% of the Moon is Illuminated
Oct 15
New Moon
Oct 21
First Quarter
Oct 29
Full
Nov 6
Last Quarter
Nov 13
New

Hourly Weather History & Observations

Time (MDT) Temp. Dew Point Humidity Pressure Visibility Wind Dir Wind Speed Gust Speed Precip Events Conditions
12:15 AM 56.1 °F 29.1 °F 36% 30.35 in - Calm Calm - N/A   Clear
12:35 AM 54.7 °F 29.7 °F 38% 30.35 in - Calm Calm - N/A   Clear
12:55 AM 54.5 °F 29.1 °F 38% 30.35 in - Calm Calm - N/A   Clear
1:15 AM 54.5 °F 28.9 °F 38% 30.35 in - Calm Calm - N/A   Clear
1:35 AM 54.1 °F 28.0 °F 37% 30.35 in - Calm Calm - N/A   Clear
1:55 AM 55.4 °F 28.2 °F 35% 30.35 in - Calm Calm - N/A   Clear
2:15 AM 55.4 °F 28.4 °F 36% 30.35 in - Calm Calm - N/A   Clear
2:35 AM 54.0 °F 28.8 °F 38% 30.33 in - Calm Calm - N/A   Clear
2:55 AM 52.9 °F 27.7 °F 38% 30.33 in - Calm Calm - N/A   Clear
3:15 AM 53.2 °F 27.3 °F 37% 30.33 in - Calm Calm - N/A   Clear
3:55 AM 51.8 °F 28.9 °F 41% 30.33 in - Calm Calm - N/A   Clear
4:15 AM 50.2 °F 29.1 °F 44% 30.33 in - Calm Calm - N/A   Clear
4:55 AM 49.3 °F 30.0 °F 48% 30.33 in - NE 3.5 mph - N/A   Clear
5:15 AM 48.2 °F 29.7 °F 49% 30.33 in - NW 3.5 mph - N/A   Clear
5:35 AM 47.5 °F 30.0 °F 51% 30.33 in - North 4.6 mph - N/A   Clear
5:55 AM 48.2 °F 30.4 °F 50% 30.33 in - North 3.5 mph - N/A   Clear
6:15 AM 48.7 °F 30.6 °F 50% 30.33 in - Calm Calm - N/A   Clear
6:35 AM 46.9 °F 30.9 °F 54% 30.33 in - Calm Calm - N/A   Clear
6:55 AM 48.4 °F 30.6 °F 50% 30.33 in - Calm Calm - N/A   Clear
7:15 AM 48.2 °F 30.0 °F 49% 30.33 in - Calm Calm - N/A   Clear
7:35 AM 48.2 °F 29.7 °F 49% 30.33 in - NNW 4.6 mph - N/A   Clear
7:55 AM 48.7 °F 29.8 °F 48% 30.33 in - North 4.6 mph - N/A   Clear
8:15 AM 50.0 °F 30.0 °F 46% 30.34 in - Calm Calm - N/A   Clear
8:35 AM 49.6 °F 30.4 °F 48% 30.34 in - Calm Calm - N/A   Clear
8:55 AM 48.4 °F 32.4 °F 54% 30.35 in - Calm Calm - N/A   Clear
9:15 AM 49.3 °F 32.2 °F 52% 30.35 in - Calm Calm - N/A   Clear
9:35 AM 50.9 °F 32.5 °F 49% 30.34 in - Calm Calm - N/A   Clear
9:55 AM 52.7 °F 31.8 °F 45% 30.34 in - Calm Calm - N/A   Clear
10:15 AM 53.6 °F 32.5 °F 45% 30.33 in - Calm Calm - N/A   Clear
10:35 AM 54.9 °F 32.2 °F 42% 30.33 in - ENE 3.5 mph - N/A   Clear
10:55 AM 56.1 °F 32.5 °F 41% 30.32 in - Calm Calm - N/A   Clear
11:15 AM 56.3 °F 31.8 °F 39% 30.32 in - Calm Calm - N/A   Clear
11:35 AM 57.7 °F 31.8 °F 37% 30.31 in - ENE 3.5 mph - N/A   Clear
11:55 AM 59.0 °F 30.6 °F 34% 30.31 in - ENE 3.5 mph - N/A   Clear
12:15 PM 59.2 °F 27.9 °F 30% 30.29 in - Calm Calm - N/A   Clear
12:35 PM 59.9 °F 27.9 °F 30% 30.29 in - ESE 3.5 mph - N/A   Clear
12:55 PM 61.7 °F 28.8 °F 29% 30.27 in - Calm Calm - N/A   Clear
1:15 PM 62.6 °F 28.4 °F 27% 30.26 in - NE 4.6 mph - N/A   Clear
1:35 PM 62.6 °F 28.8 °F 28% 30.24 in - NE 3.5 mph - N/A   Clear
1:55 PM 63.3 °F 27.7 °F 26% 30.23 in - ENE 4.6 mph - N/A   Clear
2:15 PM 64.6 °F 28.2 °F 25% 30.21 in - ENE 4.6 mph - N/A   Clear
2:35 PM 64.8 °F 27.9 °F 25% 30.21 in - ENE 5.8 mph - N/A   Clear
2:55 PM 65.3 °F 27.7 °F 24% 30.20 in - ENE 6.9 mph - N/A   Clear
3:15 PM 66.2 °F 28.9 °F 25% 30.19 in - ENE 4.6 mph - N/A   Clear
3:35 PM 66.9 °F 29.1 °F 24% 30.19 in - ENE 4.6 mph - N/A   Clear
3:55 PM 66.9 °F 28.8 °F 24% 30.18 in - East 6.9 mph - N/A   Clear
4:15 PM 67.1 °F 28.6 °F 24% 30.18 in - ENE 5.8 mph - N/A   Clear
4:35 PM 67.1 °F 28.9 °F 24% 30.17 in - East 5.8 mph - N/A   Clear
4:55 PM 66.6 °F 29.1 °F 25% 30.17 in - East 3.5 mph - N/A   Clear
5:15 PM 66.4 °F 28.9 °F 25% 30.16 in - ENE 3.5 mph - N/A   Clear
5:35 PM 66.2 °F 28.4 °F 24% 30.16 in - ENE 4.6 mph - N/A   Clear
5:55 PM 64.9 °F 28.6 °F 25% 30.16 in - ENE 3.5 mph - N/A   Clear
6:15 PM 64.2 °F 28.2 °F 26% 30.16 in - East 3.5 mph - N/A   Clear
6:35 PM 64.2 °F 27.0 °F 24% 30.16 in - Calm Calm - N/A   Clear
6:55 PM 64.4 °F 27.3 °F 25% 30.17 in - Calm Calm - N/A   Clear
7:15 PM 63.3 °F 28.2 °F 27% 30.17 in - West 5.8 mph - N/A   Clear
7:35 PM 62.8 °F 23.0 °F 22% 30.17 in - WNW 4.6 mph - N/A   Clear
7:55 PM 62.8 °F 20.7 °F 20% 30.18 in - West 6.9 mph - N/A   Clear
8:15 PM 62.1 °F 18.5 °F 19% 30.18 in - WNW 3.5 mph - N/A   Clear
8:35 PM 61.5 °F 18.9 °F 19% 30.17 in - WSW 4.6 mph - N/A   Clear
8:55 PM 61.0 °F 16.9 °F 18% 30.17 in - Calm Calm - N/A   Clear
9:15 PM 61.0 °F 15.1 °F 17% 30.17 in - West 5.8 mph - N/A   Clear
9:35 PM 59.2 °F 17.6 °F 20% 30.17 in - West 8.1 mph - N/A   Clear
9:55 PM 58.6 °F 16.0 °F 19% 30.17 in - WSW 6.9 mph - N/A   Clear
10:15 PM 59.5 °F 12.6 °F 16% 30.17 in - West 5.8 mph - N/A   Clear
10:35 PM 58.5 °F 14.2 °F 18% 30.17 in - NE 3.5 mph - N/A   Clear
10:55 PM 57.4 °F 17.1 °F 21% 30.17 in - WNW 3.5 mph - N/A   Clear
11:15 PM 58.8 °F 20.3 °F 23% 30.17 in - ESE 3.5 mph - N/A   Clear
11:35 PM 56.8 °F 19.9 °F 24% 30.17 in - Calm Calm - N/A   Clear
11:55 PM 57.4 °F 19.4 °F 23% 30.16 in - East 3.5 mph - N/A   Clear